Content
SEND FEEDBACK

Daily
Averages
Monthly
Summary
Australia

BARMARYEE, QUEENSLAND


Home > Oceania > Australia > Queensland
Elevation: 246 feet     Latitude: 23 06S     Longitude: 150 43E

WEATHER
 
SELECT A DAY
Number of Records: 281,314;   Date Range: 2/21/97 - 7/20/14
 
SHARE

PRINT THIS DATA

[ ← Previous Day ]
WEATHER ALMANAC - JANUARY 31, 2013
[ Next Day → ]
[ °C ]   °F
Weather ElementAverageHighLow
Temperature81.5 °F87.8 °F (10:30 am)77 °F (11:00 pm)
Dewpoint71.6 °F75.2 °F (3:24 am)68 °F (5:00 pm)
Humidity70.9 %89 % (6:30 am)50 % (3:00 pm)
Barometer29.82 in29.87 in (9:00 am)29.77 in (4:00 pm)
Wind Speed9.1 mph13.8 mph (12:30 pm)
Weather ElementAverage
Visibility7.6 mi
Wind DirectionESE (106.4 °)

Weather ElementTotal
Precipitation---
Cooling Degree Days17.4 (Base 65)
Growing Degree Days32.4 (Base 50)
Averaged from 67 records on January 31, 2013
WEATHER CONDITIONS BREAKOUT
WIND DIRECTION BREAKOUT
WEATHER BY HOUR - JANUARY 31, 2013
[ °C ]   °F
Local TimeTemperatureDewpointHumidityBarometerVisibilityWind DirectionWind SpeedGust SpeedPrecipitationEventsConditions
12:00 AM80.6 °F73.4 °F79 %29.83 in6.2 miESE (110°)11.5 mphScattered Clouds
12:30 AM80.6 °F73.4 °F79 %29.80 in6.2 miESE (110°)10.4 mphScattered Clouds
1:00 AM81.0 °F73.0 °F72 %29.81 inESE (120°)9.2 mph
1:00 AM80.6 °F73.4 °F79 %29.80 in6.2 miESE (120°)9.2 mph
1:30 AM80.6 °F73.4 °F79 %29.80 in6.2 miESE (120°)10.4 mphScattered Clouds
2:00 AM80.6 °F73.4 °F79 %29.80 in6.2 miESE (120°)9.2 mph
2:30 AM80.6 °F73.4 °F79 %29.80 in6.2 miESE (120°)9.2 mph
3:00 AM80.6 °F73.4 °F79 %29.80 in6.2 miESE (120°)8.1 mphScattered Clouds
3:00 AM80.0 °F74.0 °F77 %29.81 inESE (120°)8.1 mph
3:24 AM80.6 °F75.2 °F84 %29.80 in6.2 miESE (120°)8.1 mphMostly Cloudy
3:30 AM80.6 °F73.4 °F79 %29.80 in6.2 miESE (120°)9.2 mphMostly Cloudy
3:40 AM80.6 °F73.4 °F79 %29.80 in6.2 miSE (130°)9.2 mphMostly Cloudy
4:00 AM80.0 °F74.0 °F77 %29.81 inSSE (150°)5.8 mph
4:00 AM80.6 °F73.4 °F79 %29.80 in6.2 miSSE (150°)5.8 mphOvercast
4:30 AM78.8 °F73.4 °F83 %29.80 in6.2 miSSE (150°)6.9 mphScattered Clouds
5:00 AM78.8 °F73.4 °F83 %29.80 in6.2 miSE (130°)8.1 mph
5:30 AM78.8 °F73.4 °F83 %29.83 in6.2 miSE (130°)9.2 mph
6:00 AM78.0 °F74.0 °F84 %29.83 in19.0 miSE (130°)9.2 mphPartly Cloudy
6:00 AM78.8 °F73.4 °F83 %29.83 in6.2 miSE (130°)9.2 mphScattered Clouds
6:30 AM78.8 °F75.2 °F89 %29.83 in6.2 miSE (130°)9.2 mphMostly Cloudy
7:00 AM80.0 °F74.0 °F78 %29.85 inSE (130°)10.4 mph
7:00 AM78.8 °F75.2 °F89 %29.83 in6.2 miSE (130°)10.4 mphMostly Cloudy
7:30 AM78.8 °F73.4 °F83 %29.86 in6.2 miESE (120°)9.2 mphMostly Cloudy
8:00 AM80.6 °F75.2 °F84 %29.86 in6.2 miESE (120°)9.2 mphMostly Cloudy
8:30 AM80.6 °F73.4 °F79 %29.86 in5.0 miSE (130°)12.7 mphRainLight Rain Showers
8:43 AM80.6 °F73.4 °F79 %29.86 in6.2 miSE (130°)12.7 mphOvercast
9:00 AM81.0 °F74.0 °F72 %29.87 in19.0 miSE (130°)10.4 mphRainLight Rain Showers
9:00 AM80.6 °F73.4 °F79 %29.86 in5.0 miSE (130°)10.4 mphRainLight Rain Showers
9:30 AM80.6 °F75.2 °F84 %29.86 in5.0 miSE (130°)10.4 mphRainLight Rain Showers
10:00 AM84.0 °F74.0 °F65 %29.87 inSE (130°)8.1 mph
10:00 AM84.2 °F73.4 °F70 %29.86 in6.2 miSE (130°)8.1 mphScattered Clouds
10:30 AM87.8 °F73.4 °F62 %29.86 in6.2 miESE (110°)10.4 mphScattered Clouds
11:00 AM87.8 °F71.6 °F58 %29.86 in5.6 miENE (70°)11.5 mphMostly Cloudy
11:07 AM86.0 °F71.6 °F62 %29.86 in4.3 miSE (140°)12.7 mphRainLight Rain Showers
11:30 AM82.4 °F75.2 °F79 %29.86 in5.6 miESE (120°)9.2 mphRainLight Rain Showers
12:00 PM84.0 °F71.0 °F56 %29.85 in12.0 miESE (110°)10.4 mphRainLight Rain Showers
12:00 PM84.2 °F71.6 °F66 %29.83 in6.2 miESE (110°)10.4 mphRainLight Rain Showers
12:30 PM84.2 °F71.6 °F66 %29.83 in6.2 miSE (130°)13.8 mphScattered Clouds
1:00 PM84.0 °F71.0 °F57 %29.83 inEast (90°)12.7 mph
1:00 PM84.2 °F71.6 °F66 %29.83 in6.2 miEast (90°)12.7 mphScattered Clouds
1:30 PM86.0 °F71.6 °F62 %29.80 in6.2 miNE (40°)10.4 mph
2:00 PM86.0 °F71.6 °F62 %29.80 in6.2 miEast (80°)10.4 mphMostly Cloudy
2:30 PM86.0 °F69.8 °F58 %29.80 in6.2 miEast (100°)10.4 mphMostly Cloudy
3:00 PM85.0 °F69.0 °F50 %29.80 in25.0 miESE (110°)11.5 mphMostly Cloudy
3:00 PM86.0 °F69.8 °F58 %29.80 in6.2 miESE (110°)11.5 mphMostly Cloudy
3:30 PM84.2 °F71.6 °F66 %29.80 in6.2 miESE (110°)13.8 mphMostly Cloudy
4:00 PM85.0 °F70.0 °F52 %29.78 inEast (80°)11.5 mph
4:00 PM84.2 °F69.8 °F62 %29.77 in6.2 miEast (80°)11.5 mphScattered Clouds
4:30 PM84.2 °F69.8 °F62 %29.77 in6.2 miENE (60°)10.4 mphScattered Clouds
5:00 PM84.2 °F68.0 °F58 %29.77 in6.2 miEast (100°)11.5 mphPartly Cloudy
5:30 PM84.2 °F68.0 °F58 %29.77 in6.2 miEast (90°)10.4 mphPartly Cloudy
6:00 PM83.0 °F68.0 °F52 %29.79 in25.0 miEast (100°)8.1 mphPartly Cloudy
6:00 PM82.4 °F68.0 °F62 %29.77 in6.2 miEast (100°)8.1 mphPartly Cloudy
6:30 PM82.4 °F69.8 °F66 %29.77 in6.2 miENE (70°)8.1 mphPartly Cloudy
7:00 PM80.0 °F69.0 °F60 %29.80 inEast (80°)8.1 mph
7:00 PM80.6 °F68.0 °F65 %29.80 in6.2 miEast (80°)8.1 mphPartly Cloudy
7:30 PM80.6 °F68.0 °F65 %29.80 in6.2 miENE (70°)8.1 mphPartly Cloudy
8:00 PM80.6 °F68.0 °F65 %29.83 in6.2 miEast (80°)6.9 mphPartly Cloudy
8:30 PM78.8 °F68.0 °F69 %29.83 in6.2 miEast (80°)6.9 mphPartly Cloudy
9:00 PM78.8 °F68.0 °F69 %29.83 in6.2 miEast (80°)5.8 mphPartly Cloudy
9:00 PM79.0 °F69.0 °F63 %29.84 in25.0 miEast (80°)5.8 mphPartly Cloudy
9:30 PM78.8 °F69.8 °F74 %29.83 in6.2 miEast (90°)3.5 mphPartly Cloudy
10:00 PM78.0 °F69.0 °F66 %29.85 inEast (90°)3.5 mph
10:00 PM78.8 °F68.0 °F69 %29.83 in6.2 miEast (90°)3.5 mphPartly Cloudy
10:30 PM78.8 °F68.0 °F69 %29.83 in6.2 miEast (80°)4.6 mphPartly Cloudy
11:00 PM77.0 °F68.0 °F74 %29.83 in6.2 miEast (90°)3.5 mph
11:30 PM77.0 °F68.0 °F74 %29.83 in6.2 miCalm
Hourly data recorded from YBRK, located miles away from Barmaryee, Queensland







STORIES FROM OUR PARTNERS